STARLINK-35384, 65884

Orbit data source: Space-Track

STARLINK-35384, 65884 is a payload satellite owned by SpaceX/Seattle (US) in LEO that was launched on Tue, 07 Oct 2025 UTC via an FALCON 9 launch vehicle from the Air Force Eastern Test Range (AFETR). Payload-class satellites include a variety of spacecraft equipped with specific instruments for various scientific and technological missions. These include communications satellites like Starlink; space stations such as the ISS; scientific satellites like the Hubble; Earth observation satellites from companies like Planet Labs, Umbra, and HawkEye 360; GPS; miniature CubeSats for education and research; and military/defense satellites.

Not visible in the next 10 days
Identifier
65884, 2025-224C
Orbit
LEO
Country
Flag of USUS
Related business
Manufacturer
SpaceX/Seattle
Mission
Operational spacecraft
Bus & Motor
STARLINK V2MO, Unknown motor
Mass
575 kg wet, ~530 kg dry
Launch date (UTC)
2025-10-07 (2 weeks ago)
Launch vehicle
FALCON 9
Launch site
Air Force Eastern Test Range (AFETR)
Object type
Payload
Rocket body
Debris
Shape & HBR
Unknown
Radar Cross Section
RCS unknown

Expand to show TLE details & history
Last TLE update: 8 hours ago

TLE from 8 hours ago
0 STARLINK-35384
1 65884U 25224C   25292.91670139 -.01421113  00000-0 -83992-2 0  9990
2 65884  53.1510 310.1807 0001188  93.9839 211.1000 15.80099553  3202
Epoch: 2025-10-19T22:00Z
TLE epoch observation values (Epoch: 2025-10-19T22:00:03.000Z)
Latitude
-41.11683°
Longitude
-89.03606°
Altitude
344.459 km
Speed
7.701 km/s
True Right ascension
17h 58m 24s
True Declination
-40° 56' 10"
Sunlit
Object was in daylight at epoch
Visualization orbit readout
Latitude
Unknown
Longitude
Unknown
Altitude
Unknown
Speed
Unknown
Apparent Right ascension
Unknown
Apparent Declination
Unknown
Sunlit
N/A
Visualization observer readout
Local Sidereal Time
00:33:19
Azimuth
Unknown
Elevation
Unknown
Doppler factor
Unknown
Orbital elements
Apogee altitude
331.219 km
Perigee altitude
329.625 km
Semi-major axis
6,708.559 km
Eccentricity
0.00012
Inclination
53.151°
RAAN
310.1807°
Arg. of periapsis
93.9839°
True anomaly
211.09297°
Mean anomaly
211.1°
Eccentric anomaly
211.09648°
Mean motion
3.95002 °/min
Orbital period
91.14 mins
BSTAR
-0.0083992
Loading maneuver chart data...
Computing Atmospheric mass density...
Loading historical data...
Loading historical data...
Loading historical data...
Loading historical data...
Loading historical data...
Loading historical data...
Loading historical data...

Documentation

Showing up to 5 results
|